Date,TemperatureHighF,TemperatureAvgF,TemperatureLowF,DewpointHighF,DewpointAvgF,DewpointLowF,HumidityHigh,HumidityAvg,HumidityLow,PressureMaxIn,PressureMinIn,WindSpeedMaxMPH,WindSpeedAvgMPH,GustSpeedMaxMPH,PrecipitationSumIn
2013-6-5,61.8,57.6,54.6,54.4,50.0,44.4,97,77,55,29.86,29.79,13,7,0,0.00
2013-6-6,64.5,57.2,54.0,55.5,52.1,44.3,100,85,53,29.82,29.75,17,6,0,0.00
2013-6-7,67.5,59.1,54.8,57.0,53.3,45.5,100,83,53,29.77,29.61,19,6,0,0.00
2013-6-8,62.8,58.6,54.4,58.2,54.5,50.0,100,87,69,29.70,29.60,22,10,0,0.00
2013-6-9,63.5,59.7,58.3,60.1,57.9,53.8,100,94,73,29.76,29.69,17,6,0,0.00
2013-6-10,68.6,60.8,57.2,58.7,52.8,-73.5,100,78,45,29.81,29.69,13,5,0,0.00
2013-6-11,67.9,59.8,55.5,55.9,51.3,41.6,94,75,47,29.85,29.76,14,5,0,0.00
2013-6-12,67.1,59.0,53.7,54.7,48.0,-73.3,95,70,43,29.86,29.77,16,6,0,0.00
2013-6-13,67.1,58.9,52.5,53.8,46.4,38.6,94,66,39,29.95,29.84,16,6,0,0.00
2013-6-14,72.2,59.2,52.8,62.5,47.7,38.7,94,69,32,29.86,29.72,19,6,0,0.00
2013-6-15,60.5,55.1,52.4,53.6,51.6,47.3,97,89,67,29.87,29.72,20,7,0,0.00
2013-6-16,65.4,58.0,54.2,53.9,50.8,-77.9,98,79,58,29.95,29.83,17,9,0,0.00
2013-6-17,67.5,59.3,53.8,57.5,53.4,-75.6,100,83,60,29.95,29.88,18,8,0,0.00
2013-6-18,65.9,59.2,56.4,57.3,53.5,45.8,100,83,55,29.90,29.83,19,8,0,0.00
2013-6-19,67.2,59.8,54.7,56.3,48.8,42.1,99,69,46,29.92,29.85,18,6,0,0.00
2013-6-20,66.3,58.8,53.3,53.7,45.9,-74.3,94,66,41,29.88,29.80,18,6,0,0.00
2013-6-21,69.5,58.7,32.0,57.9,49.2,32.0,100,73,39,29.83,29.76,18,6,0,3.03
2013-6-22,71.4,60.5,53.7,57.0,50.1,40.5,100,72,39,29.80,29.71,18,7,0,0.00
2013-6-23,66.3,61.9,55.8,66.2,61.7,55.8,100,99,92,29.76,29.70,14,4,0,0.00
2013-6-24,63.3,60.5,57.8,63.3,59.4,56.0,100,96,80,29.77,29.68,10,2,0,0.04
2013-6-25,75.8,66.9,62.7,66.5,63.8,59.4,100,90,62,29.84,29.75,13,4,0,0.24
2013-6-26,75.4,67.5,62.1,66.5,60.2,-73.6,100,82,50,29.91,29.82,13,4,0,0.00
2013-6-27,73.2,65.3,60.1,63.6,57.2,-71.4,100,79,48,29.93,29.87,14,5,0,0.00
2013-6-28,75.0,65.0,59.9,63.6,56.3,48.7,100,75,43,29.89,29.77,16,6,0,0.00
2013-6-29,75.6,64.9,59.0,59.4,52.0,-69.4,87,66,38,29.78,29.68,18,6,0,0.00
2013-6-30,66.8,62.1,58.3,60.7,54.7,49.9,97,78,59,29.74,29.64,16,7,0,0.00